[[{"header":{"parameterUnit":"m.s-1","parameterCategory":1,"la1":30.2991,"la2":30.254,"lo1":-89.0895,"lo2":-89.0444,"dy":0.0017,"dx":0.0017,"nx":28,"ny":28,"refTime":"2024-10-05T09:00:00:Z","depth":0,"parameterNumber":2,"parameterNumberName":"U-component_of_WINDS"},"data":[0,0,0,0,0,0,0,0,0,0,0,0,0,0,0,0,0,0,0,0,0,0,0,0,0,0,0,0,0,0,0,0,0,0,0,0,0,0,0,0,0,0,0,0,0,0,0,0,0,0,0,0,0,0,0,0,0,0,-2.7382,-2.7382,0,-2.7414,-2.7415,-2.7415,-2.7266,-2.7262,-2.7257,-2.7253,-2.7292,-2.7297,-2.7302,0,0,0,0,0,0,0,0,0,0,0,0,0,-2.7195,-2.7199,-2.7382,-2.7382,-2.7382,-2.7414,-2.7415,-2.7415,-2.7267,-2.7262,-2.7256,-2.7251,-2.729,-2.7296,-2.7302,0,0,0,0,0,0,0,0,0,0,0,0,0,-2.7257,-2.72,-2.7382,-2.7312,-2.7306,-2.7414,-2.7415,-2.7415,-2.7268,-2.7261,-2.7255,-2.7249,-2.7288,-2.7296,-2.7303,-2.7481,0,0,-2.7326,-2.733,0,0,0,0,0,0,0,0,-2.7254,-2.7264,-2.7322,-2.7317,-2.7311,-2.7329,-2.7363,-2.7437,-2.727,-2.7283,-2.7253,-2.7246,-2.731,-2.7315,-2.7336,-2.7483,-2.7484,-2.7327,-2.7332,-2.7335,-2.7337,0,0,0,0,0,0,0,-2.7249,-2.7262,-2.7395,-2.7323,-2.7316,-2.7281,-2.7282,-2.7376,-2.7333,-2.7281,-2.727,-2.7276,-2.7306,-2.7329,-2.7336,-2.7485,-2.7327,-2.7334,-2.7338,-2.7341,-2.778,-2.7787,0,0,0,0,0,0,-2.7254,-2.7259,-2.7393,-2.7396,-2.7265,-2.7289,-2.7291,-2.733,-2.7331,-2.7325,-2.7281,-2.7269,-2.7319,-2.7327,-2.7337,-2.7546,-2.7335,-2.7342,-2.7346,-2.7773,-2.7782,-2.779,0,0,0,0,0,0,-2.725,-2.7267,-2.7392,-2.7324,-2.7338,-2.7299,-2.7344,-2.7334,-2.7357,-2.7331,-2.7323,-2.7313,-2.7314,-2.7326,-2.7446,-2.7545,-2.7345,-2.7352,-2.7765,-2.7776,-2.7786,-2.7966,0,0,0,0,0,0,-2.7246,-2.7267,-2.7333,-2.7327,-2.7342,-2.7501,-2.735,-2.7339,-2.737,-2.7354,-2.7359,-2.7354,-2.731,-2.7435,-2.7454,-2.7552,-2.7358,-2.7756,-2.777,-2.7783,-2.7952,-2.7982,-2.8008,0,0,0,0,0,-2.7239,-2.7383,-2.7337,-2.7354,-2.7424,-2.7506,-2.7515,-2.7461,-2.7379,-2.7446,-2.7429,-2.7354,-2.7531,-2.7449,-2.7468,-2.7571,-2.775,-2.7766,-2.7782,-2.7939,-2.7976,-2.8007,0,0,0,0,0,0,-2.7404,-2.7381,-2.733,-2.7476,-2.7494,-2.7481,-2.7564,-2.7501,-2.7545,-2.7528,-2.746,-2.7462,-2.7595,-2.7594,-2.7503,-2.7743,-2.7626,-2.7647,-2.7739,-2.7774,-2.7802,-2.7801,-2.7365,0,0,0,0,0,-2.7457,-2.7525,-2.7501,-2.7633,-2.7644,-2.7603,-2.7637,-2.7593,-2.761,-2.7618,-2.761,-2.763,-2.769,-2.7732,-2.7786,-2.795,-2.795,-2.803,-2.8058,-2.8081,-2.8101,-2.8189,-2.8225,-2.7842,-2.7842,-2.7842,0,0,-2.7568,-2.7564,-2.7611,-2.7666,-2.7675,-2.7748,-2.7611,-2.7694,-2.7748,-2.7631,-2.7744,-2.7739,-2.7757,-2.7901,-2.7963,-2.7904,-2.8206,-2.8101,-2.812,-2.8127,-2.8209,-2.8245,-2.8278,-2.7853,-2.7851,-2.7849,0,0,-2.7808,-2.7811,-2.7921,-2.7932,-2.7947,-2.7918,-2.7945,-2.7941,-2.7933,-2.8045,-2.7959,-2.8023,-2.8128,-2.8145,-2.8167,-2.8413,-2.8346,-2.8433,-2.8581,-2.8668,-2.8698,-2.8725,-2.8815,-2.8848,-2.8452,-2.8452,-2.8452,0,-2.7944,-2.805,-2.7986,-2.8075,-2.8102,-2.7997,-2.8109,-2.8124,-2.8157,-2.8179,-2.8111,-2.8241,-2.8246,-2.8392,-2.8452,-2.8473,-2.8503,-2.8433,-2.8699,-2.8725,-2.8749,-2.8834,-2.8867,-2.8463,-2.8461,-2.846,-2.8459,0,-2.8218,-2.8293,-2.838,-2.8413,-2.845,-2.855,-2.8503,-2.8548,-2.8501,-2.848,-2.8596,-2.8598,-2.8651,-2.8682,-2.8637,-2.8823,-2.8786,-2.871,-2.8591,-2.8797,-2.8876,-2.8908,-2.8478,-2.8474,-2.8471,-2.8468,0,0,-2.8565,-2.8559,-2.8593,-2.8607,-2.8615,-2.8672,-2.8768,-2.8818,-2.886,-2.8885,-2.8966,-2.9057,-2.8986,-2.9012,-2.8968,-2.9044,-2.9241,-2.8958,-2.8958,-2.9013,-2.9448,-2.9507,-2.9546,-2.9195,-2.9201,-2.9206,-2.9447,0,-2.8801,-2.8964,-2.8909,-2.9075,-2.9144,-2.9045,-2.9129,-2.9144,-2.9127,-2.9184,-2.9165,-2.9232,-2.9132,-2.9147,-2.9218,-2.9202,-2.9328,-2.9184,-2.9272,-2.9276,-2.9273,-2.9587,-2.9649,-2.9877,-2.9478,-2.9483,-2.9486,0,-2.91,-2.9136,-2.9309,-2.9306,-2.9333,-2.9409,-2.9451,-2.9506,-2.9522,-2.9504,-2.9533,-2.9473,-2.9568,-2.9448,-2.958,-2.9483,-2.9515,-2.9513,-2.952,-2.9529,-2.9396,-2.9606,-2.9948,-2.9984,-2.9534,-2.953,-2.9527,0,-2.9338,-2.943,-2.9546,-2.956,-2.9559,-2.9615,-2.9617,-2.9626,-2.966,-2.9697,-2.9719,-2.9767,-2.9794,-2.9834,-2.9789,-2.9705,-2.9929,-2.9804,-2.9919,-2.9921,-2.9973,-2.9971,-3.0328,-2.999,-2.999,-2.9989,-2.9988,0,-2.961,-2.972,-2.9653,-2.9725,-2.9845,-2.9781,-2.9903,-2.9894,-2.9903,-2.9972,-2.9889,-2.9956,-2.9891,-2.9953,-2.9919,-3.0035,-3.0047,-3.0037,-3.0027,-3.0046,-3.0048,-3.0068,-3.0052,-2.9998,-2.9996,-2.9994,-2.9993,0,-2.9898,-2.9857,-2.9976,-2.9964,-2.9964,-3.0054,-3.0045,-3.0111,-3.0087,-3.0176,-3.0193,-3.0157,-3.0226,-3.0184,-3.0254,-3.0231,-3.0382,-3.0349,-3.0377,-3.0369,-3.0487,-3.0478,-3.0873,-3.0922,-3.0551,-3.0554,-3.0557,0,-3.0075,-3.0157,-3.0154,-3.0193,-3.0201,-3.0266,-3.03,-3.0239,-3.0279,-3.0302,-3.0367,-3.0427,-3.0473,-3.0587,-3.0568,-3.0622,-3.0591,-3.0725,-3.0599,-3.0615,-3.0596,-3.0592,-3.0601,-3.0752,-3.0756,-3.076,-3.0763,0,-3.0395,-3.037,-3.0421,-3.0466,-3.0509,-3.0541,-3.0567,-3.0605,-3.0544,-3.0593,-3.0661,-3.0696,-3.0767,-3.0829,-3.0874,-3.0878,-3.0813,-3.0802,-3.0832,-3.0854,-3.0867,-3.0864,-3.045,-3.0794,-3.0791,-3.0789,-3.0787,-3.0786,-3.0634,-3.0703,-3.0712,-3.0772,-3.0784,-3.0811,-3.0873,-3.0856,-3.0911,-3.0963,-3.0924,-3.1006,-3.102,-3.1073,-3.1085,-3.1149,-3.1095,-3.1138,-3.1149,-3.1161,-3.1178,-3.0855,-3.1157,-3.1156,-3.1155,-3.1154,-3.1154,0,-3.0951,-3.0951,-3.1007,-3.1046,-3.1094,-3.1024,-3.1049,-3.1095,-3.1167,-3.1184,-3.123,-3.1309,-3.1369,-3.1355,-3.1409,-3.1463,-3.1434,-3.148,-3.1476,-3.1479,-3.1223,-3.1193,-3.1502,-3.1502,-3.1502,-3.1502,-3.1502,-3.1502,-3.1122,-3.1236,-3.1212,-3.1332,-3.1331,-3.1409,-3.143,-3.1454,-3.1468,-3.1559,-3.1608,-3.1597,-3.1602,-3.1656,-3.1709,-3.1703,-3.1728,-3.1785,-3.1769,-3.1531,-3.1496,-3.1464,-3.1435,-3.179,-3.1791,-3.2019,-3.2022,-3.2023]},{"header":{"parameterUnit":"m.s-1","parameterCategory":1,"la1":30.2991,"la2":30.254,"lo1":-89.0895,"lo2":-89.0444,"dy":0.0017,"dx":0.0017,"nx":28,"ny":28,"refTime":"2024-10-05T09:00:00:Z","depth":0,"parameterNumber":3,"parameterNumberName":"V-component_of_WINDS"},"data":[0,0,0,0,0,0,0,0,0,0,0,0,0,0,0,0,0,0,0,0,0,0,0,0,0,0,0,0,0,0,0,0,0,0,0,0,0,0,0,0,0,0,0,0,0,0,0,0,0,0,0,0,0,0,0,0,0,0,-2.5451,-2.5451,0,-2.5461,-2.5461,-2.5461,-2.5438,-2.5437,-2.5436,-2.5436,-2.5445,-2.5446,-2.5446,0,0,0,0,0,0,0,0,0,0,0,0,0,-2.5412,-2.5413,-2.5451,-2.5451,-2.5451,-2.5461,-2.5461,-2.5461,-2.5438,-2.5437,-2.5436,-2.5435,-2.5444,-2.5445,-2.5447,0,0,0,0,0,0,0,0,0,0,0,0,0,-2.5426,-2.5413,-2.5451,-2.5441,-2.544,-2.5461,-2.5461,-2.5461,-2.5438,-2.5437,-2.5436,-2.5435,-2.5444,-2.5445,-2.5447,-2.5477,0,0,-2.5451,-2.5452,0,0,0,0,0,0,0,0,-2.5425,-2.5427,-2.5443,-2.5442,-2.5441,-2.5447,-2.545,-2.5466,-2.5438,-2.5439,-2.5436,-2.5434,-2.5446,-2.5447,-2.5452,-2.5477,-2.5478,-2.5451,-2.5452,-2.5452,-2.5453,0,0,0,0,0,0,0,-2.5424,-2.5427,-2.5455,-2.5443,-2.5442,-2.5436,-2.5436,-2.5453,-2.5449,-2.5439,-2.5437,-2.5439,-2.5446,-2.545,-2.5452,-2.5478,-2.5451,-2.5452,-2.5453,-2.5454,-2.5526,-2.5527,0,0,0,0,0,0,-2.5425,-2.5426,-2.5455,-2.5455,-2.543,-2.5437,-2.5438,-2.5446,-2.5448,-2.5448,-2.544,-2.5438,-2.5448,-2.545,-2.5452,-2.5486,-2.5452,-2.5454,-2.5455,-2.5525,-2.5527,-2.5528,0,0,0,0,0,0,-2.5424,-2.5427,-2.5454,-2.544,-2.5443,-2.5439,-2.5448,-2.5447,-2.5451,-2.5449,-2.5448,-2.5445,-2.5448,-2.545,-2.547,-2.5486,-2.5454,-2.5456,-2.5524,-2.5526,-2.5527,-2.5554,0,0,0,0,0,0,-2.5423,-2.5427,-2.5439,-2.5441,-2.5444,-2.5473,-2.5449,-2.5448,-2.5454,-2.5451,-2.5454,-2.5453,-2.5447,-2.5468,-2.5472,-2.5487,-2.5457,-2.5522,-2.5525,-2.5527,-2.5552,-2.5557,-2.5561,0,0,0,0,0,-2.5421,-2.5447,-2.544,-2.5444,-2.5459,-2.5474,-2.5476,-2.5469,-2.5455,-2.5467,-2.5465,-2.5453,-2.5484,-2.5471,-2.5474,-2.549,-2.5521,-2.5524,-2.5526,-2.555,-2.5556,-2.5561,0,0,0,0,0,0,-2.5448,-2.5447,-2.5439,-2.5466,-2.547,-2.547,-2.5485,-2.5475,-2.5483,-2.5481,-2.5471,-2.5471,-2.5493,-2.5494,-2.5479,-2.5518,-2.55,-2.5503,-2.5517,-2.5522,-2.5527,-2.5526,-2.5458,0,0,0,0,0,-2.5457,-2.547,-2.5468,-2.5492,-2.5494,-2.5489,-2.5496,-2.5489,-2.5493,-2.5495,-2.5495,-2.5499,-2.5509,-2.5516,-2.5525,-2.5552,-2.5551,-2.5565,-2.5569,-2.5573,-2.5575,-2.5588,-2.5593,-2.5536,-2.5536,-2.5536,0,0,-2.5475,-2.5476,-2.5485,-2.5497,-2.55,-2.5512,-2.5491,-2.5506,-2.5515,-2.5497,-2.5516,-2.5516,-2.5519,-2.5543,-2.5553,-2.5544,-2.5591,-2.5576,-2.5579,-2.5579,-2.5591,-2.5596,-2.5601,-2.5538,-2.5537,-2.5537,0,0,-2.5515,-2.5518,-2.5537,-2.554,-2.5544,-2.554,-2.5544,-2.5546,-2.5545,-2.5563,-2.555,-2.556,-2.5578,-2.5581,-2.5585,-2.5624,-2.5613,-2.5627,-2.5649,-2.5662,-2.5666,-2.567,-2.5682,-2.5687,-2.563,-2.563,-2.563,0,-2.5538,-2.5557,-2.5548,-2.5563,-2.5568,-2.5552,-2.5571,-2.5574,-2.5581,-2.5584,-2.5574,-2.5595,-2.5597,-2.5619,-2.5629,-2.5633,-2.5636,-2.5626,-2.5666,-2.567,-2.5673,-2.5685,-2.569,-2.5632,-2.5631,-2.5631,-2.5631,0,-2.5583,-2.5596,-2.5611,-2.5617,-2.5624,-2.5641,-2.5634,-2.5642,-2.5634,-2.5631,-2.5649,-2.565,-2.5659,-2.5664,-2.5658,-2.5685,-2.5679,-2.5668,-2.5649,-2.5681,-2.5691,-2.5696,-2.5634,-2.5633,-2.5633,-2.5632,0,0,-2.5641,-2.5641,-2.5646,-2.5648,-2.565,-2.566,-2.5675,-2.5683,-2.5689,-2.5694,-2.5706,-2.5721,-2.571,-2.5714,-2.5707,-2.5718,-2.5747,-2.5705,-2.5705,-2.5711,-2.5775,-2.5783,-2.5788,-2.574,-2.574,-2.5741,-2.5774,0,-2.5679,-2.5705,-2.5697,-2.5723,-2.5734,-2.5718,-2.5731,-2.5734,-2.5731,-2.574,-2.5736,-2.5747,-2.5732,-2.5734,-2.5744,-2.5741,-2.5759,-2.5739,-2.5749,-2.575,-2.5748,-2.5794,-2.5803,-2.5834,-2.5779,-2.5779,-2.578,0,-2.5727,-2.5733,-2.576,-2.5758,-2.5763,-2.5775,-2.578,-2.5789,-2.5791,-2.5788,-2.5792,-2.5782,-2.5796,-2.5778,-2.5796,-2.5783,-2.5786,-2.5785,-2.5786,-2.5786,-2.5766,-2.5794,-2.5844,-2.5848,-2.5787,-2.5786,-2.5786,0,-2.5764,-2.5779,-2.5796,-2.5798,-2.5798,-2.5806,-2.5806,-2.5807,-2.5811,-2.5816,-2.5819,-2.5826,-2.5829,-2.5834,-2.5826,-2.5814,-2.5845,-2.5827,-2.5842,-2.5842,-2.5848,-2.5848,-2.5898,-2.5853,-2.5853,-2.5853,-2.5852,0,-2.5806,-2.5823,-2.5812,-2.5823,-2.5841,-2.5831,-2.5849,-2.5847,-2.5847,-2.5857,-2.5844,-2.5853,-2.5843,-2.5851,-2.5845,-2.5859,-2.5862,-2.5859,-2.5857,-2.5859,-2.5859,-2.5861,-2.5858,-2.5854,-2.5854,-2.5853,-2.5853,0,-2.585,-2.5844,-2.5862,-2.5859,-2.5859,-2.5872,-2.5869,-2.5878,-2.5874,-2.5886,-2.5888,-2.5882,-2.589,-2.5883,-2.5891,-2.5887,-2.5907,-2.5902,-2.5906,-2.5904,-2.5919,-2.5917,-2.5971,-2.5977,-2.5929,-2.593,-2.593,0,-2.5877,-2.589,-2.5888,-2.5893,-2.5894,-2.5903,-2.5907,-2.5897,-2.5902,-2.5904,-2.5913,-2.592,-2.5925,-2.5939,-2.5934,-2.594,-2.5935,-2.5954,-2.5936,-2.5937,-2.5933,-2.5932,-2.5932,-2.5957,-2.5957,-2.5958,-2.5958,0,-2.5926,-2.5921,-2.5928,-2.5933,-2.5938,-2.5942,-2.5945,-2.595,-2.594,-2.5946,-2.5954,-2.5958,-2.5965,-2.5972,-2.5976,-2.5975,-2.5965,-2.5964,-2.5967,-2.5969,-2.597,-2.5968,-2.5914,-2.5963,-2.5962,-2.5962,-2.5962,-2.5961,-2.5961,-2.597,-2.597,-2.5977,-2.5978,-2.598,-2.5988,-2.5984,-2.5991,-2.5996,-2.599,-2.6,-2.5999,-2.6004,-2.6004,-2.6011,-2.6003,-2.6009,-2.601,-2.6011,-2.6012,-2.597,-2.6012,-2.6012,-2.6012,-2.6011,-2.6011,0,-2.6007,-2.6005,-2.6012,-2.6016,-2.6021,-2.601,-2.6012,-2.6017,-2.6026,-2.6026,-2.6031,-2.604,-2.6046,-2.6042,-2.6046,-2.6052,-2.6047,-2.6054,-2.6053,-2.6052,-2.602,-2.6016,-2.6058,-2.6058,-2.6058,-2.6058,-2.6058,-2.6058,-2.6031,-2.6046,-2.6041,-2.6055,-2.6054,-2.6063,-2.6064,-2.6066,-2.6066,-2.6076,-2.6081,-2.6078,-2.6076,-2.6081,-2.6085,-2.6084,-2.6085,-2.6093,-2.609,-2.6059,-2.6055,-2.6051,-2.6046,-2.6094,-2.6094,-2.6122,-2.6122,-2.6122]}]]